Flag for Germany Weather past 2 weeks in Baden-Baden, Baden-Württemberg, Germany

Now
41 °F

Light rain. Passing clouds.


Feels Like: 31 °F
Forecast: 34 / 42 °F
Wind: 25 mph from Southwest

Location: Karlsruhe - Baden Wurttemberg

Current Time: Jan 28, 2015 at 11:23:52 PM

Latest Report: Jan 28, 2015 at 10:20 PM


Visibility: N/A

Pressure: 29.56 "Hg

Humidity: 76%

Dew point: 34 °F

Location of Baden-BadenLocation

Historic Weather in Baden-Baden — Graph

°F

Baden-Baden temperature yesterday

Maximum temperature yesterday: 39 °F (at 12:20 PM)
Minimum temperature yesterday: 28 °F (at 8:20 AM)
Average temperature yesterday: 36 °F

Past Weeks' High & Low Weather Summary

 TemperatureHumidityPressure
High54 °F (Jan 13, 9:20 PM)100% (Jan 16, 4:50 PM)30.45 "Hg (Jan 16, 4:50 PM)
Low27 °F (Jan 18, 5:20 AM)47% (Jan 15, 1:20 PM)29.56 "Hg (Jan 28, 9:50 PM)
Average37 °F86%30.02 "Hg
* Reported Jan 13 9:20 PM — Jan 28 9:50 PM, Baden-Baden, Weather by CustomWeather, © 2014

Note: Actual official high and low records may vary slightly from our data, if they occured in-between our weather recording intervals... More about our weather records

Advertising

Baden-Baden weather history for previous 24 hours

 ConditionsComfort  
Time TempWeatherWind HumidityBarometerVisibility
9:50 PM
Jan 28
41 °FLight rain. Passing clouds.30 mph76%29.56 "HgN/A
9:20 PM41 °FLight rain. Passing clouds.31 mph76%29.59 "HgN/A
8:50 PM41 °FSprinkles. Passing clouds.31 mph76%29.59 "Hg6 mi
8:20 PM41 °FRain showers. Passing clouds.28 mph76%29.62 "Hg4 mi
7:50 PM41 °FSprinkles. Passing clouds.30 mph70%29.62 "Hg5 mi
7:20 PM41 °FPassing clouds.28 mph70%29.65 "HgN/A
6:50 PM41 °FSprinkles. Passing clouds.26 mph76%29.68 "Hg4 mi
6:20 PM41 °FPassing clouds.29 mph70%29.71 "HgN/A
5:50 PM41 °FPassing clouds.23 mph70%29.74 "HgN/A
5:20 PM41 °FPassing clouds.23 mph70%29.74 "HgN/A
4:50 PM41 °FScattered clouds.23 mph70%29.77 "HgN/A
4:20 PM41 °FPartly sunny.22 mph76%29.83 "HgN/A
3:50 PM41 °FPartly sunny.21 mph76%29.86 "HgN/A
3:20 PM41 °FPartly sunny.23 mph76%29.86 "HgN/A
2:50 PM41 °FPartly sunny.21 mph76%29.89 "HgN/A
2:20 PM41 °FPartly sunny.23 mph76%29.92 "HgN/A
1:50 PM41 °FPartly sunny.22 mph76%29.92 "HgN/A
1:20 PM41 °FPartly sunny.21 mph76%29.98 "HgN/A
12:50 PM41 °FPartly sunny.20 mph76%29.98 "HgN/A
12:20 PM39 °FBroken clouds.20 mph81%30.01 "HgN/A
11:50 AM39 °FBroken clouds.21 mph81%30.04 "HgN/A
11:20 AM39 °FBroken clouds.17 mph81%30.07 "HgN/A
10:50 AM37 °FPartly sunny.18 mph87%30.07 "HgN/A
10:20 AM37 °FPartly sunny.20 mph87%30.07 "HgN/A
9:50 AM37 °FBroken clouds.18 mph81%30.09 "HgN/A
9:20 AM36 °FBroken clouds.16 mph87%30.09 "HgN/A
8:50 AM36 °FBroken clouds.15 mph87%30.09 "HgN/A
8:20 AM36 °FBroken clouds.12 mph87%30.12 "HgN/A
7:50 AM36 °FPartly cloudy.9 mph87%30.12 "HgN/A
7:20 AM36 °FPartly cloudy.10 mph87%30.12 "HgN/A
6:50 AM36 °FPartly cloudy.12 mph87%30.12 "HgN/A
6:20 AM36 °FPartly cloudy.9 mph87%30.15 "HgN/A
5:50 AM36 °FPartly cloudy.8 mph87%30.15 "HgN/A
5:20 AM36 °FPassing clouds.8 mph93%30.15 "HgN/A
4:50 AM36 °FPassing clouds.8 mph93%30.18 "HgN/A
11:50 PM
Jan 27
36 °FSprinkles. Passing clouds.9 mph93%30.24 "Hg6 mi
11:20 PM36 °FSprinkles. Passing clouds.9 mph93%30.24 "Hg6 mi
Weather by CustomWeather, © 2014

See weather overviewHow to use our weather pages